{"data":{"norad_id":67107,"intl_designator":"2025-299F","name":"STARLINK-36196","alt_names":[],"object_type":"PAYLOAD","status":"ACTIVE","operator":null,"country":"US","launch_date":"2025-12-15","launch_site_code":"AFETR","launch_vehicle":null,"mission":null,"orbit_class":"UNKNOWN","rcs_meters":null,"size_class":null,"mass_kg":null,"dimensions":null,"purposes":["comms"],"wikipedia_slug":null,"has_3d_model":false,"image_url":null,"decayed_at":null,"tle_current":{"epoch":"2026-05-24T23:37:22.597248Z","epoch_age_seconds":76408,"freshness":"FRESH","line1":"1 67107U 25299F   26144.98428932  .00022658  00000+0  83018-3 0  9995","line2":"2 67107  43.0030  98.1979 0001314 255.7267 104.3439 15.27587476 24786","mean_motion":15.27587476,"eccentricity":0.0001314,"inclination_deg":43.003,"raan_deg":98.1979,"arg_perigee_deg":255.7267,"mean_anomaly_deg":104.3439,"bstar":0.00083018,"rev_number":2478,"period_min":94.266287372992,"perigee_km":482.12515338594,"apogee_km":483.928267209,"semimajor_km":6861.1637102975,"source":"CELESTRAK","updated_at":"2026-05-25T13:38:21.473420Z"}}}